User: anonymous   Login
Location: Unspecified
(0.0000°N, 0.0000°E)
Time: 20:46:38
(UTC+00:00)
Language:

NOSS 2-2 (D) - Orbit

View from above orbital plane
View from above orbital plane
View from above satellite
View from above satellite

Ground track
Ground track

The orbit data is extracted from the following two-line orbital elements,

1 21808U 91076D   18121.83557144 0.00000100  00000-0  28629-4 0    07
2 21808  63.3512 356.8275 0772000  28.3429 331.6570 13.41190318    07
Epoch (UTC): 01 May 2018 20:03:13
Eccentricity: 0.0772000
inclination: 63.3512°
perigee height: 527 km
apogee height: 1682 km
right ascension of ascending node: 356.8275°
argument of perigee: 28.3429°
revolutions per day: 13.41190318
mean anomaly at epoch: 331.6570°
orbit number at epoch: 0

The dashed part of the orbit path shows where the satellite is in the earth's shadow,  

DLR